OAL463 KMIA-KLGA

Flight info

Callsign OAL463
Flight time N/A
Altitude 32000
Route FOLZZ3 ALYRA GRUBR Y299 SEELO GARIC Q107 HURTS PROUD2
Aircraft B77L/H-SDE1E2E3FGHIJ2J3J4J5M1RWXY/LB1D1

Departure

Time 2026-05-07 09:23
Airport Miami International Airport (KMIA)

Arrival

Time N/A
Airport LaGuardia Airport (KLGA)
Time Latitude Longitude Altitude Speed Heading
2026-05-07 09:07 25.80510 -80.29570 23 ft 0 kts 355°
2026-05-07 09:16 25.80492 -80.29569 25 ft 3 kts 355°
2026-05-07 09:17 25.80472 -80.29567 22 ft 3 kts 355°
2026-05-07 09:17 25.80451 -80.29565 23 ft 3 kts 355°
2026-05-07 09:17 25.80432 -80.29563 23 ft 3 kts 315°
2026-05-07 09:17 25.80426 -80.29546 23 ft 1 kts 268°
2026-05-07 09:20 25.80426 -80.29560 25 ft 6 kts 268°
2026-05-07 09:20 25.80422 -80.29644 25 ft 16 kts 268°
2026-05-07 09:20 25.80416 -80.29791 27 ft 20 kts 266°
2026-05-07 09:20 25.80410 -80.29945 25 ft 20 kts 268°
2026-05-07 09:21 25.80404 -80.30099 23 ft 20 kts 265°
2026-05-07 09:21 25.80286 -80.30144 20 ft 20 kts 178°
2026-05-07 09:21 25.80146 -80.30138 19 ft 15 kts 178°
2026-05-07 09:21 25.80080 -80.30109 19 ft 11 kts 117°
2026-05-07 09:22 25.80077 -80.30003 17 ft 23 kts 86°
2026-05-07 09:22 25.80096 -80.29687 18 ft 68 kts 86°
2026-05-07 09:22 25.80123 -80.28907 30 ft 132 kts 88°
2026-05-07 09:22 25.80170 -80.27677 34 ft 182 kts 88°
2026-05-07 09:23 25.80214 -80.26274 556 ft 181 kts 88°
2026-05-07 09:23 25.80231 -80.24844 1039 ft 191 kts 101°
2026-05-07 09:23 25.79619 -80.23510 1367 ft 204 kts 127°
2026-05-07 09:23 25.78824 -80.22166 1869 ft 213 kts 120°
2026-05-07 09:24 25.78095 -80.20698 2504 ft 221 kts 118°
2026-05-07 09:24 25.77372 -80.19167 3156 ft 228 kts 118°
2026-05-07 09:24 25.76627 -80.17602 3798 ft 236 kts 119°
2026-05-07 09:24 25.75814 -80.15978 4438 ft 245 kts 119°
2026-05-07 09:25 25.74972 -80.14294 5109 ft 253 kts 119°
2026-05-07 09:25 25.74180 -80.12519 5656 ft 263 kts 106°
2026-05-07 09:25 25.74163 -80.10463 6033 ft 279 kts 70°
2026-05-07 09:25 25.75194 -80.08634 6570 ft 288 kts 49°
2026-05-07 09:26 25.76558 -80.06951 7239 ft 297 kts 48°
2026-05-07 09:26 25.77948 -80.05238 8074 ft 300 kts 48°
2026-05-07 09:26 25.79346 -80.03502 8885 ft 303 kts 48°
2026-05-07 09:26 25.80760 -80.01740 9605 ft 309 kts 49°
2026-05-07 09:27 25.82199 -79.99937 10303 ft 315 kts 49°
2026-05-07 09:27 25.83670 -79.98086 10976 ft 322 kts 49°
2026-05-07 09:27 25.86656 -79.94309 12370 ft 333 kts 49°
2026-05-07 09:28 25.88208 -79.92341 12895 ft 344 kts 49°
2026-05-07 09:28 25.89805 -79.90310 13417 ft 354 kts 49°
2026-05-07 09:28 25.91448 -79.88220 13949 ft 364 kts 49°
2026-05-07 09:28 25.93135 -79.86073 14461 ft 373 kts 49°
2026-05-07 09:29 25.94860 -79.83876 15068 ft 380 kts 48°
2026-05-07 09:29 25.96606 -79.81651 15743 ft 383 kts 48°
2026-05-07 09:29 25.98365 -79.79407 16419 ft 387 kts 48°
2026-05-07 09:29 26.00136 -79.77147 17060 ft 390 kts 48°
2026-05-07 09:30 26.01937 -79.74849 17667 ft 395 kts 47°
2026-05-07 09:30 26.03749 -79.72534 18261 ft 399 kts 47°
2026-05-07 09:30 26.05582 -79.70190 18867 ft 403 kts 47°
2026-05-07 09:30 26.07408 -79.67856 19434 ft 407 kts 47°
2026-05-07 09:31 26.09274 -79.65470 19991 ft 411 kts 47°
2026-05-07 09:31 26.11150 -79.63043 20530 ft 416 kts 49°
2026-05-07 09:31 26.12898 -79.60464 21051 ft 421 kts 53°
2026-05-07 09:31 26.14575 -79.57764 21567 ft 425 kts 54°
2026-05-07 09:32 26.16245 -79.55027 22085 ft 429 kts 54°
2026-05-07 09:32 26.17937 -79.52276 22592 ft 432 kts 53°
2026-05-07 09:32 26.19659 -79.49514 23068 ft 436 kts 53°
2026-05-07 09:32 26.20843 -79.47634 23381 ft 439 kts 53°
2026-05-07 09:33 26.22606 -79.44848 23833 ft 443 kts 53°
2026-05-07 09:33 26.24368 -79.42069 24282 ft 446 kts 52°
2026-05-07 09:33 26.26163 -79.39239 24751 ft 449 kts 52°
2026-05-07 09:33 26.28616 -79.35461 25313 ft 450 kts 47°
2026-05-07 09:34 26.30114 -79.33799 25523 ft 450 kts 34°
2026-05-07 09:34 26.32690 -79.31934 25843 ft 449 kts 28°
2026-05-07 09:34 26.35382 -79.30118 26226 ft 454 kts 28°
2026-05-07 09:34 26.38081 -79.28282 26674 ft 456 kts 29°
2026-05-07 09:35 26.40781 -79.26416 27158 ft 458 kts 29°
2026-05-07 09:35 26.43486 -79.24522 27585 ft 460 kts 30°
2026-05-07 09:35 26.46204 -79.22597 27965 ft 464 kts 30°
2026-05-07 09:35 26.48937 -79.20650 28356 ft 467 kts 30°
2026-05-07 09:36 26.51680 -79.18693 28760 ft 470 kts 30°
2026-05-07 09:36 26.54470 -79.16697 29179 ft 472 kts 30°
2026-05-07 09:36 26.57206 -79.14739 29584 ft 475 kts 30°
2026-05-07 09:36 26.59993 -79.12742 29959 ft 477 kts 30°
2026-05-07 09:37 26.62798 -79.10734 30310 ft 480 kts 30°
2026-05-07 09:37 26.65623 -79.08711 30666 ft 483 kts 30°
2026-05-07 09:37 26.68460 -79.06678 31023 ft 485 kts 30°
2026-05-07 09:37 26.71308 -79.04635 31358 ft 487 kts 30°
2026-05-07 09:38 26.74170 -79.02583 31666 ft 489 kts 30°
2026-05-07 09:38 26.77043 -79.00520 31959 ft 492 kts 30°
2026-05-07 09:38 26.79928 -78.98447 32235 ft 494 kts 30°
2026-05-07 09:38 26.82826 -78.96364 32507 ft 496 kts 30°
2026-05-07 09:39 26.85731 -78.94273 32760 ft 498 kts 30°
2026-05-07 09:39 26.88649 -78.92173 33010 ft 499 kts 30°
2026-05-07 09:39 26.91576 -78.90066 33238 ft 501 kts 30°
2026-05-07 09:39 26.94512 -78.87950 33462 ft 502 kts 30°
2026-05-07 09:40 26.97456 -78.85828 33655 ft 504 kts 30°
2026-05-07 09:40 27.00410 -78.83697 33848 ft 506 kts 30°
2026-05-07 09:40 27.03372 -78.81558 34032 ft 507 kts 30°
2026-05-07 09:40 27.06343 -78.79412 34231 ft 508 kts 30°
2026-05-07 09:41 27.09314 -78.77265 34397 ft 510 kts 30°
2026-05-07 09:41 27.12298 -78.75104 34588 ft 510 kts 30°
2026-05-07 09:41 27.14957 -78.73178 34847 ft 508 kts 30°
2026-05-07 09:41 27.17927 -78.71027 35017 ft 508 kts 30°
2026-05-07 09:42 27.20877 -78.68889 35034 ft 501 kts 30°
2026-05-07 09:42 27.26695 -78.64683 35035 ft 492 kts 27°
2026-05-07 09:42 27.29777 -78.63084 35036 ft 485 kts 12°
2026-05-07 09:43 27.33070 -78.62508 35053 ft 476 kts
2026-05-07 09:43 27.39691 -78.61833 35057 ft 480 kts
2026-05-07 09:44 27.46316 -78.61033 35054 ft 483 kts
2026-05-07 09:44 27.53021 -78.60167 35058 ft 486 kts
2026-05-07 09:45 27.59754 -78.59285 35049 ft 487 kts
2026-05-07 09:45 27.66490 -78.58402 35048 ft 487 kts
2026-05-07 09:46 27.73227 -78.57524 35043 ft 487 kts
2026-05-07 09:46 27.79944 -78.56651 35046 ft 485 kts
2026-05-07 09:47 27.86639 -78.55777 35045 ft 484 kts
2026-05-07 09:47 27.93315 -78.54905 35043 ft 482 kts
2026-05-07 09:48 27.99974 -78.54034 35046 ft 481 kts
2026-05-07 09:48 28.06626 -78.53164 35037 ft 481 kts
2026-05-07 09:49 28.13266 -78.52293 35037 ft 480 kts
2026-05-07 09:49 28.19912 -78.51421 35028 ft 480 kts
2026-05-07 09:50 28.26553 -78.50548 35029 ft 480 kts
2026-05-07 09:50 28.33197 -78.49673 35028 ft 481 kts
2026-05-07 09:51 28.39809 -78.48801 35029 ft 481 kts
2026-05-07 09:51 28.46467 -78.47923 35026 ft 482 kts
2026-05-07 09:52 28.53129 -78.47043 35033 ft 482 kts
2026-05-07 09:52 28.59798 -78.46156 35041 ft 483 kts
2026-05-07 09:53 28.66487 -78.45273 35032 ft 484 kts
2026-05-07 09:53 28.73187 -78.44386 35028 ft 485 kts
2026-05-07 09:54 28.79902 -78.43493 35025 ft 486 kts
2026-05-07 09:54 28.86624 -78.42599 35031 ft 486 kts
2026-05-07 09:55 28.93343 -78.41703 35028 ft 486 kts
2026-05-07 09:55 29.00060 -78.40807 35027 ft 486 kts
2026-05-07 09:56 29.06769 -78.39911 35025 ft 485 kts
2026-05-07 09:56 29.13481 -78.39014 35031 ft 486 kts
2026-05-07 09:57 29.20193 -78.38117 35026 ft 486 kts
2026-05-07 09:57 29.26903 -78.37217 35028 ft 486 kts
2026-05-07 09:58 29.32486 -78.36468 35030 ft 486 kts
2026-05-07 09:58 29.40343 -78.35411 35026 ft 486 kts
2026-05-07 09:59 29.42571 -78.35112 35025 ft 487 kts
2026-05-07 10:00 29.59368 -78.37694 35026 ft 474 kts 340°
2026-05-07 10:00 29.65716 -78.39845 35023 ft 477 kts 341°
2026-05-07 10:01 29.72071 -78.41921 35025 ft 478 kts 341°
2026-05-07 10:01 29.73151 -78.42272 35024 ft 479 kts 341°
2026-05-07 10:02 29.85224 -78.46192 35019 ft 480 kts 341°
2026-05-07 10:02 29.91653 -78.48290 35015 ft 480 kts 341°
2026-05-07 10:03 29.98043 -78.50380 35013 ft 480 kts 341°
2026-05-07 10:03 30.04464 -78.52479 35016 ft 479 kts 341°
2026-05-07 10:04 30.10891 -78.54526 35008 ft 479 kts 345°
2026-05-07 10:04 30.17558 -78.55324 35016 ft 484 kts 356°
2026-05-07 10:05 30.24293 -78.54676 35016 ft 487 kts
2026-05-07 10:05 30.31010 -78.53608 35004 ft 487 kts
2026-05-07 10:06 30.37736 -78.52609 35010 ft 487 kts
2026-05-07 10:06 30.44461 -78.51632 35009 ft 488 kts
2026-05-07 10:07 30.51187 -78.50552 35008 ft 488 kts
2026-05-07 10:07 30.57871 -78.49449 35006 ft 488 kts
2026-05-07 10:08 30.64601 -78.48347 35009 ft 488 kts
2026-05-07 10:08 30.71339 -78.47253 35006 ft 489 kts
2026-05-07 10:09 30.78071 -78.46161 35008 ft 489 kts
2026-05-07 10:09 30.84807 -78.45066 35004 ft 489 kts
2026-05-07 10:10 30.91541 -78.43970 35007 ft 489 kts
2026-05-07 10:10 30.98280 -78.42870 35002 ft 489 kts
2026-05-07 10:11 31.05010 -78.41771 35002 ft 488 kts
2026-05-07 10:11 31.11742 -78.40672 35001 ft 489 kts
2026-05-07 10:12 31.18477 -78.39566 34999 ft 489 kts
2026-05-07 10:12 31.25221 -78.38460 35005 ft 489 kts
2026-05-07 10:13 31.31960 -78.37353 35003 ft 489 kts
2026-05-07 10:13 31.38649 -78.36253 35011 ft 489 kts
2026-05-07 10:14 31.45387 -78.35143 35007 ft 489 kts
2026-05-07 10:14 31.52120 -78.34032 35009 ft 488 kts
2026-05-07 10:15 31.58859 -78.32917 35004 ft 488 kts
2026-05-07 10:15 31.65586 -78.31804 35015 ft 488 kts
2026-05-07 10:16 31.72308 -78.30691 35008 ft 488 kts
2026-05-07 10:16 31.79000 -78.29581 35003 ft 488 kts
2026-05-07 10:17 31.85733 -78.28462 34999 ft 488 kts
2026-05-07 10:17 31.92455 -78.27342 34998 ft 488 kts
2026-05-07 10:18 31.99185 -78.26221 35004 ft 488 kts
2026-05-07 10:18 32.05909 -78.25132 34996 ft 488 kts
2026-05-07 10:19 32.12657 -78.24158 34986 ft 488 kts
2026-05-07 10:19 32.19398 -78.23202 34996 ft 488 kts
2026-05-07 10:20 32.26137 -78.22230 35002 ft 488 kts
2026-05-07 10:20 32.32873 -78.21246 35000 ft 488 kts
2026-05-07 10:21 32.39609 -78.20258 35000 ft 488 kts
2026-05-07 10:21 32.46305 -78.19275 34997 ft 488 kts
2026-05-07 10:22 32.53047 -78.18285 35002 ft 488 kts
2026-05-07 10:22 32.59801 -78.17292 34985 ft 488 kts
2026-05-07 10:23 32.66543 -78.16300 34997 ft 488 kts
2026-05-07 10:23 32.73278 -78.15304 34996 ft 488 kts
2026-05-07 10:24 32.80013 -78.14308 35001 ft 488 kts
2026-05-07 10:24 32.86752 -78.13312 34983 ft 488 kts
2026-05-07 10:25 32.93496 -78.12313 34981 ft 488 kts
2026-05-07 10:25 33.00248 -78.11313 34982 ft 488 kts
2026-05-07 10:26 33.06945 -78.10315 34983 ft 488 kts
2026-05-07 10:26 33.13698 -78.09308 34981 ft 488 kts
2026-05-07 10:27 33.20438 -78.08303 34981 ft 488 kts
2026-05-07 10:27 33.27183 -78.07295 34984 ft 488 kts
2026-05-07 10:28 33.33921 -78.06288 34980 ft 488 kts
2026-05-07 10:28 33.40669 -78.05276 35005 ft 489 kts
2026-05-07 10:29 33.47426 -78.04264 34984 ft 488 kts
2026-05-07 10:29 33.54156 -78.03251 34996 ft 488 kts
2026-05-07 10:30 33.64260 -78.01729 34985 ft 487 kts
2026-05-07 10:30 33.70986 -78.00715 34997 ft 487 kts
2026-05-07 10:31 33.76564 -77.99872 34997 ft 486 kts
2026-05-07 10:31 33.84413 -77.98683 34987 ft 486 kts
2026-05-07 10:32 33.89993 -77.97834 34986 ft 486 kts
2026-05-07 10:32 33.96693 -77.96785 35000 ft 486 kts
2026-05-07 10:33 34.03396 -77.95725 35003 ft 486 kts
2026-05-07 10:33 34.10101 -77.94668 34984 ft 486 kts
2026-05-07 10:34 34.16808 -77.93613 34984 ft 486 kts
2026-05-07 10:34 34.23510 -77.92556 34980 ft 486 kts
2026-05-07 10:35 34.30229 -77.91495 34982 ft 487 kts
2026-05-07 10:35 34.36950 -77.90431 34982 ft 487 kts
2026-05-07 10:36 34.43672 -77.89366 34982 ft 488 kts
2026-05-07 10:36 34.50409 -77.88295 34980 ft 488 kts
2026-05-07 10:37 34.57151 -77.87222 34981 ft 489 kts
2026-05-07 10:37 34.63858 -77.86153 34982 ft 490 kts
2026-05-07 10:38 34.70620 -77.85074 34976 ft 490 kts
2026-05-07 10:38 34.77392 -77.83991 34976 ft 491 kts
2026-05-07 10:39 34.84167 -77.82907 34971 ft 492 kts
2026-05-07 10:39 34.90906 -77.81220 34977 ft 498 kts 11°
2026-05-07 10:40 34.97583 -77.78909 34970 ft 500 kts 12°
2026-05-07 10:40 35.04276 -77.76576 34963 ft 501 kts 11°
2026-05-07 10:41 35.10993 -77.74279 34958 ft 502 kts 11°
2026-05-07 10:41 35.17723 -77.71994 34963 ft 502 kts 11°
2026-05-07 10:42 35.24471 -77.69705 34954 ft 504 kts 11°
2026-05-07 10:42 35.31233 -77.67402 34949 ft 505 kts 11°
2026-05-07 10:43 35.37908 -77.65123 34949 ft 506 kts 11°
2026-05-07 10:43 35.44738 -77.62785 34940 ft 506 kts 11°
2026-05-07 10:44 35.51478 -77.60478 34936 ft 507 kts 11°
2026-05-07 10:44 35.58284 -77.58143 34923 ft 508 kts 11°
2026-05-07 10:45 35.65095 -77.55800 34917 ft 508 kts 11°
2026-05-07 10:45 35.71910 -77.53453 34917 ft 509 kts 11°
2026-05-07 10:46 35.78734 -77.51155 34916 ft 508 kts 10°
2026-05-07 10:46 35.85574 -77.48953 34917 ft 508 kts 10°
2026-05-07 10:47 35.92414 -77.46749 34917 ft 508 kts 10°
2026-05-07 10:47 35.99212 -77.44536 34917 ft 508 kts 10°
2026-05-07 10:48 36.06045 -77.42303 34910 ft 509 kts 10°
2026-05-07 10:48 36.12893 -77.40062 34917 ft 509 kts 10°
2026-05-07 10:49 36.19754 -77.37813 34919 ft 510 kts 10°
2026-05-07 10:49 36.26612 -77.35558 34916 ft 510 kts 10°
2026-05-07 10:50 36.33475 -77.33300 34916 ft 510 kts 10°
2026-05-07 10:50 36.40337 -77.31036 34918 ft 511 kts 10°
2026-05-07 10:51 36.47209 -77.28765 34917 ft 511 kts
2026-05-07 10:51 36.54078 -77.26489 34917 ft 511 kts
2026-05-07 10:52 36.60944 -77.24207 34916 ft 511 kts
2026-05-07 10:52 36.67821 -77.21915 34916 ft 511 kts
2026-05-07 10:53 36.74700 -77.19619 34922 ft 512 kts
2026-05-07 10:53 36.81583 -77.17318 34916 ft 512 kts
2026-05-07 10:54 36.88417 -77.15030 34918 ft 513 kts
2026-05-07 10:54 36.95318 -77.12713 34917 ft 513 kts
2026-05-07 10:55 37.02218 -77.10392 34909 ft 514 kts
2026-05-07 10:55 37.09123 -77.08069 34907 ft 514 kts
2026-05-07 10:56 37.16031 -77.05738 34906 ft 515 kts
2026-05-07 10:56 37.22910 -77.03409 34911 ft 515 kts
2026-05-07 10:57 37.29830 -77.01066 34920 ft 515 kts
2026-05-07 10:57 37.36754 -76.98715 34928 ft 515 kts
2026-05-07 10:58 37.43692 -76.96356 34929 ft 515 kts
2026-05-07 10:58 37.50450 -76.93172 34952 ft 526 kts 22°
2026-05-07 10:59 37.56872 -76.88650 34946 ft 529 kts 24°
2026-05-07 10:59 37.63297 -76.84127 34946 ft 529 kts 23°
2026-05-07 11:00 37.69737 -76.79796 34946 ft 529 kts 22°
2026-05-07 11:00 37.76046 -76.75602 34946 ft 530 kts 22°
2026-05-07 11:01 37.82564 -76.71240 34943 ft 530 kts 22°
2026-05-07 11:01 37.89082 -76.66875 34941 ft 530 kts 21°
2026-05-07 11:02 37.95662 -76.62698 34948 ft 529 kts 20°
2026-05-07 11:02 38.02272 -76.58562 34941 ft 529 kts 20°
2026-05-07 11:03 38.08853 -76.54394 34950 ft 530 kts 20°
2026-05-07 11:03 38.15217 -76.50336 34947 ft 530 kts 20°
2026-05-07 11:04 38.21816 -76.46121 34943 ft 531 kts 20°
2026-05-07 11:04 38.26028 -76.43428 34952 ft 531 kts 20°
2026-05-07 11:05 38.33443 -76.37800 34962 ft 541 kts 32°